Flag for Sweden Weather past 2 weeks in Gothenburg, Sweden

Now
64 °F

Passing clouds.


Feels Like: 64 °F
Forecast: 64 / 78 °F
Wind: 9 mph from Southwest

Location: Gothenburg / Save

Current Time: Aug 1, 2014 at 6:38:03 AM

Latest Report: Aug 1, 2014 at 6:20 AM


Visibility: N/A

Pressure: 29.83 "Hg

Humidity: 83%

Dew point: 59 °F

Location of GothenburgLocation

Historic Weather in Gothenburg — Graph

°F

Gothenburg temperature yesterday

Maximum temperature yesterday: 70 °F (at 12:50 PM)
Minimum temperature yesterday: 61 °F (at 11:50 PM)
Average temperature yesterday: 66 °F

Past Weeks' High & Low Weather Summary

 TemperatureHumidityPressure
High86 °F (Jul 24, 1:50 PM)100% (Jul 29, 12:20 AM)30.30 "Hg (Jul 29, 12:20 AM)
Low48 °F (Jul 19, 4:50 AM)30% (Jul 23, 7:50 PM)29.71 "Hg (Jul 30, 4:50 PM)
Average68 °F70%30.02 "Hg
* Reported Jul 17 5:20 AM — Aug 1 5:20 AM, Gothenburg, Weather by CustomWeather, © 2014

Note: Actual official high and low records may vary slightly from our data, if they occured in-between our weather recording intervals... More about our weather records

Advertising

Gothenburg weather history for previous 24 hours

 ConditionsComfort  
Time TempWeatherWind HumidityBarometerVisibility
5:20 AM
Aug 1
66 °FMostly cloudy.13 mph78%29.83 "HgN/A
4:50 AM64 °FPartly cloudy.10 mph78%29.80 "HgN/A
4:20 AM64 °FMostly cloudy.10 mph83%29.83 "HgN/A
3:50 AM66 °FClear.13 mph73%29.83 "Hg10 mi
2:50 AM66 °FOvercast.13 mph73%29.80 "HgN/A
2:20 AM64 °FPassing clouds.12 mph78%29.83 "HgN/A
1:50 AM63 °FPassing clouds.7 mph77%29.83 "HgN/A
1:20 AM61 °FClear.6 mph83%29.83 "Hg10 mi
12:50 AM59 °FPassing clouds.6 mph88%29.83 "HgN/A
12:20 AM59 °FPassing clouds.3 mph82%29.83 "HgN/A
11:50 PM
Jul 31
61 °FClear.5 mph77%29.83 "Hg10 mi
11:20 PM63 °FClear.6 mph77%29.83 "Hg10 mi
10:50 PM63 °FPassing clouds.5 mph77%29.80 "HgN/A
10:20 PM64 °FPassing clouds.6 mph73%29.80 "HgN/A
9:50 PM64 °FPassing clouds.6 mph73%29.80 "HgN/A
9:20 PM64 °FPassing clouds.6 mph73%29.80 "HgN/A
8:50 PM66 °FSunny.8 mph68%29.80 "Hg10 mi
8:20 PM66 °FPassing clouds.9 mph68%29.80 "HgN/A
7:50 PM66 °FSunny.9 mph68%29.80 "Hg10 mi
7:20 PM68 °FSunny.10 mph64%29.80 "Hg10 mi
6:50 PM68 °FSunny.13 mph64%29.80 "Hg10 mi
6:20 PM68 °FSunny.12 mph60%29.80 "Hg10 mi
5:50 PM68 °FSunny.14 mph60%29.80 "Hg10 mi
5:20 PM68 °FPassing clouds.15 mph60%29.80 "HgN/A
4:50 PM68 °FPassing clouds.15 mph64%29.80 "HgN/A
4:20 PM70 °FPassing clouds.15 mph64%29.80 "HgN/A
3:38 PM70 °FScattered clouds.13 mph64%29.80 "HgN/A
2:50 PM70 °FScattered clouds.12 mph64%29.77 "HgN/A
2:20 PM68 °FScattered clouds.12 mph60%29.80 "HgN/A
1:50 PM64 °FScattered clouds.14 mph73%29.77 "HgN/A
1:20 PM68 °FScattered showers. Scattered clouds.13 mph64%29.77 "HgN/A
12:50 PM70 °FScattered clouds.13 mph60%29.77 "HgN/A
12:20 PM68 °FBroken clouds.14 mph69%29.77 "HgN/A
11:50 AM68 °FPartly sunny.13 mph69%29.77 "HgN/A
11:20 AM66 °FScattered clouds.16 mph68%29.77 "HgN/A
10:50 AM68 °FScattered clouds.14 mph69%29.77 "HgN/A
10:20 AM68 °FScattered clouds.13 mph69%29.74 "HgN/A
9:50 AM66 °FScattered clouds.14 mph68%29.74 "HgN/A
9:20 AM66 °FScattered clouds.13 mph73%29.74 "HgN/A
8:50 AM66 °FScattered clouds.14 mph73%29.74 "HgN/A
8:20 AM66 °FScattered clouds.13 mph73%29.74 "HgN/A
7:50 AM66 °FScattered clouds.12 mph73%29.74 "HgN/A
7:20 AM64 °FScattered clouds.10 mph78%29.74 "HgN/A
6:50 AM64 °FBroken clouds.13 mph73%29.74 "HgN/A
6:20 AM64 °FScattered clouds.8 mph73%29.74 "HgN/A
Weather by CustomWeather, © 2014

See weather overviewHow to use our weather pages